This is the latest recevied weather packets stored in our database for station/object KB7STN. If no packets are shown the sender has not sent any weather packets the latest 10 day(s).
| Time | Temp. | Humidity | Pressure | Rain* | Wind** | Luminosity | Snow |
|---|---|---|---|---|---|---|---|
| 1778144233 | 10.56° C | 36% | 1012.8 hPa | 0 mm | - | - | - |
| 1778143933 | 10.56° C | 36% | 1012.8 hPa | 0 mm | - | - | - |
| 1778143633 | 10.56° C | 35% | 1012.8 hPa | 0 mm | - | - | - |
| 1778143333 | 10.56° C | 37% | 1013 hPa | 0 mm | - | - | - |
| 1778143033 | 10.56° C | 36% | 1012.9 hPa | 0 mm | - | - | - |
| 1778142733 | 10.56° C | 36% | 1013.2 hPa | 0 mm | - | - | - |
| 1778142433 | 10.56° C | 36% | 1013.1 hPa | 0 mm | - | - | - |
| 1778142133 | 10° C | 37% | 1013.1 hPa | 0 mm | - | - | - |
| 1778141833 | 10° C | 35% | 1013 hPa | 0 mm | - | - | - |
| 1778141533 | 10° C | 38% | 1013.1 hPa | 0 mm | - | - | - |
| 1778141233 | 9.44° C | 39% | 1013.3 hPa | 0 mm | - | - | - |
| 1778140933 | 9.44° C | 40% | 1013.2 hPa | 0 mm | - | - | - |
| 1778140633 | 9.44° C | 40% | 1013.2 hPa | 0 mm | - | - | - |
| 1778140333 | 9.44° C | 40% | 1013.3 hPa | 0 mm | - | - | - |
| 1778140033 | 9.44° C | 40% | 1013.3 hPa | 0 mm | - | - | - |
| 1778139733 | 9.44° C | 40% | 1013.4 hPa | 0 mm | - | - | - |
| 1778139433 | 9.44° C | 40% | 1013.3 hPa | 0 mm | - | - | - |
| 1778139133 | 9.44° C | 40% | 1013.4 hPa | 0 mm | - | - | - |
| 1778138833 | 9.44° C | 41% | 1013.6 hPa | 0 mm | - | - | - |
| 1778138533 | 9.44° C | 41% | 1013.6 hPa | 0 mm | - | - | - |
| 1778138233 | 8.89° C | 41% | 1013.7 hPa | 0 mm | - | - | - |
| 1778137933 | 8.89° C | 42% | 1013.7 hPa | 0 mm | - | - | - |
| 1778137633 | 8.89° C | 41% | 1013.8 hPa | 0 mm | - | - | - |
| 1778137333 | 8.89° C | 41% | 1013.8 hPa | 0 mm | - | - | - |
| 1778137033 | 8.33° C | 42% | 1013.7 hPa | 0 mm | - | - | - |
* Rain latest hour (hover to see other rain measurements)
** Current wind speed in m/s (hover to see current wind gust speed)